Location: Gibsondale
(40.9931°N, 80.2478°W)
Time: 08:15:08
(UTC+00:00)

Cosmos 1408 - Pass Details

Date: 29 October 2020
Orbit: 470 x 492 km, 82.6° (Epoch: 27 November)

Event Time Altitude Azimuth Distance (km) Brightness Sun altitude
Rises 22:57:04 0° 9° (N) 2,557 6.0 -7.6°
Reaches altitude 10° 22:59:41 10° 28° (NNE) 1,676 4.9 -8.1°
Maximum altitude 23:02:17 18° 74° (ENE) 1,251 4.0 -8.6°
Drops below altitude 10° 23:04:52 10° 119° (ESE) 1,675 4.8 -9.1°
Sets 23:07:28 0° 139° (SE) 2,554 5.9 -9.6°
